Temp
11 11 11 11 11 11 11 11 11 11 11 11 11 11 10 10 10 9 9 9 8 8 8 8 8 8 8 7 7 6 6 6 6 6 6 6 6 6 6 6 5 5
11 11 11 11 11 11 11 11 11 11 11 11 10 10 10 10 9 9 9 8 8 8 8 8 8 7 7 7 6 6 6 5 5 5 5 6 6 6 5 5 5 5
11 11 11 11 11 11 11 11 11 11 11 10 10 10 9 9 9 8 8 8 8 8 8 7 7 7 6 6 6 6 5 5 5 5 5 5 5 5 5 5 5 5
11 11 11 11 11 11 11 11 11 11 10 10 10 9 9 9 8 8 8 8 8 8 7 7 7 6 6 6 6 5 5 5 5 5 5 5 5 5 5 5 5 4
11 10 10 11 11 11 11 11 11 11 10 10 10 9 9 8 8 8 8 8 7 7 7 7 7 6 6 6 6 5 5 5 5 5 5 5 5 5 5 4 4 4
11 10 10 10 11 11 11 11 11 11 10 10 9 9 8 8 8 7 7 7 7 7 6 6 6 6 6 6 6 5 5 5 5 5 5 5 4 4 4 4 4 4
10 10 10 10 10 11 10 10 10 10 10 10 9 9 8 8 7 7 7 7 6 6 6 6 6 6 6 6 5 5 5 5 5 4 4 4 4 4 4 4 4 4
10 10 10 10 10 10 10 10 10 10 10 10 9 9 9 8 8 7 7 7 6 6 5 5 5 5 5 5 5 5 5 5 5 5 4 4 4 4 4 4 4 4
10 10 10 10 10 10 10 10 10 10 10 10 10 9 9 8 8 7 7 7 6 6 6 5 5 5 5 5 5 5 5 5 5 4 5 4 4 4 4 4 4 4
10 10 10 10 10 10 10 10 10 10 10 10 10 9 8 7 7 7 6 6 6 6 6 5 5 5 5 5 5 5 5 5 4 4 5 4 4 4 4 4 4 4
10 10 10 10 10 10 10 10 10 10 10 10 9 8 7 7 6 6 6 6 6 6 6 5 5 5 5 5 5 4 4 4 4 4 4 4 4 4 4 4 4 4
9 9 9 9 10 10 10 10 10 10 10 9 8 8 7 6 6 6 6 6 5 5 5 5 5 5 5 4 4 4 4 4 4 4 4 4 4 4 3 3 3 4
9 9 9 9 9 10 10 10 10 9 9 9 8 7 7 6 6 6 5 5 5 5 5 5 5 5 4 4 4 4 4 4 4 4 4 4 4 3 3 3 3 3
9 10 10 9 9 9 9 10 9 9 9 8 8 7 6 6 6 6 5 5 5 5 5 5 5 5 4 4 4 4 4 4 4 4 4 4 4 3 3 3 3 3
9 9 9 9 9 9 9 9 9 9 8 8 7 7 6 6 6 6 6 6 6 6 5 5 5 5 5 5 4 4 4 4 4 4 4 4 4 3 3 3 3 3
9 9 9 9 9 9 9 9 9 8 8 7 7 6 6 6 6 6 6 5 5 5 5 5 5 5 5 4 4 4 4 4 4 4 4 4 3 3 3 3 3 3
9 9 9 9 9 9 9 8 8 8 7 7 7 6 6 6 6 5 5 5 5 5 5 5 5 5 4 4 4 4 4 4 3 3 3 3 3 3 3 3 3 3
8 8 8 9 9 9 8 8 8 7 7 7 6 6 6 6 6 5 5 5 5 5 5 5 4 4 4 4 4 4 4 4 3 3 3 3 3 3 3 3 2 2
8 8 8 9 9 8 8 7 7 7 7 6 6 6 6 5 5 5 5 5 4 4 4 4 4 4 4 4 4 4 4 3 4 3 3 3 3 3 3 2 2 2
8 8 8 9 8 8 8 7 7 7 6 6 6 6 5 5 5 5 5 5 4 4 4 4 3 3 3 3 3 3 3 3 3 3 3 3 3 3 2 2 2 2
8 8 8 8 8 8 7 7 6 6 6 6 5 5 5 5 5 5 5 4 4 4 4 3 3 3 3 3 3 3 3 3 3 3 3 3 3 2 2 2 2 2
8 8 8 8 8 7 7 6 6 6 6 5 5 5 5 5 5 4 4 4 4 4 4 3 3 3 3 3 3 3 3 3 3 3 3 3 3 2 2 2 2 2
8 8 8 7 7 7 6 6 6 6 5 5 5 5 5 5 4 4 4 4 4 4 4 3 3 3 3 3 3 3 3 3 3 3 3 3 2 2 2 2 2 2
8 8 7 7 6 6 6 6 6 5 5 5 5 5 5 4 4 4 4 4 4 3 3 3 3 3 3 3 3 3 3 3 3 3 2 2 2 2 2 2 2 2
8 7 7 6 6 6 6 5 5 5 5 5 5 5 5 4 5 5 4 3 3 3 4 4 3 3 3 3 3 3 3 3 2 2 2 2 2 2 2 2 2 1
7 7 6 6 6 5 5 5 5 5 5 5 4 4 4 4 4 4 4 3 3 3 4 4 4 4 4 4 4 4 3 3 2 2 2 2 2 2 2 2 2 2
Height
3199 3198 3196 3195 3194 3192 3190 3188 3187 3185 3183 3182 3180 3179 3177 3176 3175 3174 3174 3173 3172 3172 3171 3170 3169 3169 3168 3167 3166 3165 3164 3164 3163 3162 3161 3160 3159 3159 3157 3156 3155 3155
3197 3196 3195 3193 3192 3191 3189 3187 3186 3184 3182 3181 3179 3177 3176 3175 3174 3173 3172 3171 3171 3170 3169 3168 3167 3166 3165 3165 3164 3163 3162 3162 3161 3160 3159 3159 3158 3157 3156 3155 3154 3153
3195 3194 3193 3192 3191 3189 3188 3186 3185 3183 3181 3179 3177 3176 3174 3173 3172 3171 3170 3169 3169 3168 3167 3166 3165 3164 3163 3162 3161 3161 3160 3159 3159 3158 3157 3156 3155 3154 3153 3153 3152 3151
3192 3192 3191 3190 3189 3188 3187 3185 3183 3181 3179 3177 3176 3174 3173 3171 3170 3169 3168 3167 3167 3166 3165 3164 3163 3162 3161 3160 3159 3159 3158 3157 3156 3155 3155 3154 3152 3151 3150 3149 3149 3148
3191 3190 3189 3189 3188 3186 3185 3183 3181 3179 3177 3175 3174 3172 3171 3170 3168 3167 3166 3166 3165 3164 3163 3162 3161 3160 3159 3158 3158 3157 3156 3155 3154 3153 3152 3151 3149 3148 3147 3146 3145 3144
3189 3188 3187 3186 3185 3184 3183 3181 3179 3177 3175 3173 3172 3170 3169 3167 3166 3165 3165 3164 3163 3162 3161 3160 3159 3158 3157 3156 3156 3155 3154 3153 3152 3150 3149 3148 3146 3145 3144 3142 3142 3141
3187 3186 3185 3184 3183 3182 3181 3179 3176 3175 3173 3171 3170 3169 3168 3166 3165 3164 3163 3162 3161 3160 3159 3158 3157 3156 3155 3154 3153 3152 3152 3150 3149 3148 3146 3145 3143 3142 3140 3139 3138 3137
3184 3183 3182 3182 3181 3180 3179 3177 3175 3172 3171 3169 3168 3167 3166 3165 3164 3163 3161 3160 3159 3157 3157 3156 3155 3154 3153 3152 3151 3150 3149 3147 3146 3145 3143 3142 3141 3139 3137 3136 3135 3134
3181 3181 3180 3180 3179 3178 3177 3175 3173 3170 3168 3166 3165 3164 3163 3162 3161 3160 3159 3157 3157 3156 3155 3154 3153 3152 3150 3149 3148 3147 3146 3144 3143 3142 3141 3140 3139 3137 3135 3133 3132 3131
3178 3178 3178 3178 3177 3176 3175 3173 3170 3167 3165 3163 3162 3161 3160 3159 3158 3157 3156 3155 3154 3153 3152 3151 3151 3150 3148 3147 3146 3144 3143 3142 3141 3140 3139 3137 3136 3134 3133 3131 3129 3128
3176 3176 3176 3175 3174 3173 3172 3170 3167 3165 3162 3161 3159 3158 3157 3156 3155 3154 3153 3152 3151 3150 3149 3149 3148 3147 3146 3145 3144 3142 3141 3140 3139 3138 3136 3134 3133 3131 3130 3128 3127 3125
3174 3173 3173 3173 3172 3170 3169 3167 3165 3163 3161 3159 3158 3157 3156 3155 3154 3153 3151 3150 3148 3147 3147 3146 3145 3144 3143 3142 3141 3140 3139 3138 3136 3135 3133 3132 3130 3129 3128 3126 3124 3122
3171 3171 3171 3171 3170 3168 3167 3166 3164 3162 3160 3158 3157 3156 3155 3154 3152 3151 3150 3148 3147 3146 3145 3143 3142 3141 3140 3139 3138 3137 3136 3135 3134 3132 3131 3129 3128 3127 3125 3123 3121 3120
3169 3169 3169 3169 3167 3166 3165 3164 3161 3159 3158 3156 3155 3154 3153 3152 3151 3150 3149 3148 3147 3145 3143 3142 3141 3139 3138 3137 3135 3134 3133 3132 3131 3130 3128 3127 3125 3124 3122 3120 3119 3117
3167 3166 3166 3166 3165 3164 3163 3160 3158 3156 3155 3154 3154 3153 3152 3151 3150 3149 3148 3146 3145 3143 3141 3140 3138 3136 3135 3134 3132 3131 3130 3129 3127 3127 3125 3124 3122 3121 3119 3118 3116 3114
3164 3164 3163 3163 3162 3161 3159 3157 3155 3154 3154 3153 3153 3152 3151 3150 3149 3147 3146 3144 3142 3140 3138 3137 3135 3133 3132 3131 3129 3128 3126 3125 3124 3123 3122 3120 3119 3117 3116 3114 3113 3111
3161 3160 3160 3160 3159 3158 3156 3154 3153 3153 3152 3152 3151 3150 3149 3148 3146 3145 3143 3142 3140 3138 3136 3134 3133 3131 3129 3127 3126 3124 3123 3122 3121 3119 3118 3117 3115 3113 3112 3110 3109 3107
3157 3157 3157 3157 3156 3155 3153 3152 3151 3151 3150 3150 3149 3148 3147 3145 3144 3142 3141 3139 3137 3135 3133 3132 3130 3129 3127 3125 3123 3122 3120 3119 3117 3116 3115 3114 3112 3110 3108 3106 3105 3104
3154 3155 3155 3155 3154 3153 3151 3150 3149 3149 3148 3147 3146 3144 3143 3142 3140 3139 3137 3135 3133 3132 3131 3129 3127 3126 3124 3122 3121 3119 3117 3115 3114 3113 3111 3110 3109 3107 3105 3103 3101 3100
3153 3153 3153 3153 3152 3150 3149 3148 3147 3146 3145 3144 3142 3141 3140 3138 3137 3135 3134 3132 3130 3129 3128 3126 3125 3123 3121 3120 3118 3116 3114 3112 3111 3109 3108 3107 3105 3104 3102 3100 3098 3097
3150 3151 3151 3150 3149 3147 3146 3145 3144 3143 3142 3140 3139 3138 3137 3135 3133 3132 3130 3129 3127 3125 3124 3123 3122 3121 3119 3117 3115 3113 3111 3109 3108 3106 3105 3103 3102 3100 3099 3097 3095 3093
3148 3148 3148 3147 3145 3144 3143 3142 3141 3140 3138 3137 3136 3135 3134 3132 3131 3129 3127 3126 3124 3123 3121 3119 3118 3117 3114 3113 3112 3110 3108 3106 3105 3103 3102 3100 3099 3097 3096 3094 3092 3090
3145 3145 3144 3143 3142 3142 3141 3140 3139 3137 3136 3135 3133 3133 3132 3130 3128 3125 3123 3122 3121 3120 3118 3116 3115 3113 3112 3110 3109 3107 3104 3102 3101 3099 3098 3097 3096 3094 3093 3091 3089 3087
3142 3141 3141 3140 3139 3139 3138 3138 3136 3135 3134 3132 3131 3130 3128 3127 3125 3122 3119 3118 3118 3117 3116 3114 3112 3110 3109 3107 3106 3103 3101 3100 3098 3096 3094 3093 3092 3091 3090 3088 3086 3085
3138 3138 3138 3137 3137 3136 3135 3135 3134 3133 3131 3129 3127 3126 3124 3123 3122 3120 3117 3116 3115 3114 3112 3110 3108 3107 3105 3103 3102 3100 3098 3096 3094 3092 3091 3090 3089 3088 3087 3085 3083 3082
3135 3135 3134 3134 3133 3132 3132 3131 3130 3129 3128 3125 3123 3121 3120 3119 3119 3117 3115 3113 3112 3111 3110 3107 3105 3103 3101 3099 3098 3096 3094 3093 3091 3088 3087 3086 3085 3084 3084 3083 3081 3079
Wind_Speed
17 20 21 23 25 26 26 26 25 24 24 23 23 22 22 21 20 19 18 18 18 17 17 17 18 18 18 17 17 17 17 18 18 18 18 18 18 18 18 18 18 19
17 19 21 23 24 26 27 28 27 26 25 24 23 22 22 21 20 20 19 18 18 18 18 18 18 18 17 17 17 17 17 17 18 18 18 18 18 18 18 18 19 19
17 19 21 23 25 26 27 28 29 29 28 26 25 23 22 21 20 20 19 19 19 19 19 18 18 18 17 17 17 18 18 18 19 19 18 19 20 20 20 20 20 20
18 20 20 22 24 26 28 29 31 31 31 28 26 23 21 20 20 20 20 20 19 19 19 18 18 17 17 17 17 18 19 19 19 20 19 20 21 22 23 23 23 23
19 20 21 22 24 26 29 30 32 33 32 30 27 24 21 20 19 19 19 19 18 18 17 17 18 17 17 17 17 18 19 19 19 20 21 22 22 23 24 26 26 25
21 21 21 22 24 27 29 31 33 34 34 32 27 23 21 19 18 17 17 16 16 15 15 15 16 17 18 18 18 18 19 19 20 21 22 23 25 26 27 27 28 27
24 23 22 23 25 27 29 32 34 36 35 32 27 22 20 18 17 16 15 15 16 15 15 15 16 17 18 18 18 18 18 20 21 22 23 24 25 27 29 30 30 29
27 24 23 23 25 27 28 31 35 36 35 32 28 24 21 19 17 16 17 17 17 17 17 17 18 19 19 19 19 18 19 20 22 22 23 24 25 27 30 31 31 30
29 26 23 25 26 27 29 31 35 37 36 34 30 26 22 20 19 18 18 18 18 18 18 18 19 20 20 21 20 20 20 21 23 24 25 26 26 26 27 29 30 30
30 27 25 26 27 28 29 31 35 37 36 34 31 27 23 21 20 19 19 19 19 20 19 19 20 20 21 22 22 22 22 23 24 25 26 27 26 26 27 28 30 30
31 28 26 27 28 28 30 32 35 36 35 33 29 26 24 22 21 21 21 22 22 23 22 22 22 22 22 23 24 24 23 24 25 26 26 27 27 27 28 29 31 31
31 27 26 28 28 28 30 33 35 35 32 29 26 23 21 20 20 21 21 22 22 23 23 24 24 24 23 23 24 23 23 24 25 25 26 26 26 27 28 29 31 32
30 27 28 30 28 28 30 33 34 31 27 25 23 21 20 20 20 21 21 22 22 23 24 25 26 25 23 23 24 24 24 24 25 25 25 25 25 26 27 28 29 30
31 30 31 30 27 28 31 33 32 28 25 23 21 20 20 20 20 20 21 22 23 24 25 25 24 24 24 24 25 25 25 26 25 25 25 25 25 25 26 27 27 28
30 30 31 28 26 28 31 31 29 26 23 21 20 19 18 18 18 19 20 21 23 24 24 24 24 24 25 25 26 26 26 26 26 26 26 26 26 26 26 26 26 27
28 31 30 26 26 29 30 28 26 23 21 19 18 18 18 18 19 20 21 22 23 24 25 25 24 24 25 25 25 26 27 27 27 27 27 28 28 27 27 26 26 26
29 30 27 24 26 29 28 25 22 20 18 17 18 19 20 21 22 22 23 24 25 25 26 26 25 24 24 23 24 26 27 28 28 28 28 29 29 28 27 27 26 25
27 23 22 23 26 27 25 22 20 19 19 19 20 22 23 24 25 25 26 26 27 27 26 26 25 24 23 23 23 25 27 28 29 29 29 29 29 29 28 27 26 26
22 18 20 24 25 24 21 19 19 19 21 23 24 26 28 29 29 30 29 29 29 28 27 27 26 24 23 23 24 25 27 28 29 29 29 29 28 28 28 28 27 27
16 16 21 23 23 22 20 19 20 21 23 25 27 28 30 31 32 33 32 31 30 29 28 28 27 25 23 23 24 26 28 29 29 29 28 28 27 26 27 27 28 28
14 18 23 23 22 22 21 22 23 23 25 26 28 29 31 32 33 33 33 32 31 30 30 30 29 26 24 23 24 26 28 28 28 28 28 27 26 25 25 27 27 27
16 21 23 23 23 22 23 23 23 24 25 26 28 30 31 32 33 33 33 31 30 30 30 30 28 26 25 24 24 26 28 28 28 28 28 26 25 24 25 25 25 26
18 21 22 22 23 23 23 23 23 24 25 26 28 30 31 32 33 34 31 27 26 27 28 29 28 27 26 27 27 27 28 28 29 29 28 26 24 23 24 24 24 25
19 21 21 22 22 22 23 23 23 24 25 27 29 30 31 32 33 35 33 28 27 26 26 27 28 27 28 28 28 28 28 28 29 31 29 26 23 22 22 23 23 23
20 21 21 22 23 25 25 24 25 26 26 28 29 30 32 32 33 36 36 32 28 26 26 26 25 24 25 25 25 27 27 27 29 31 29 25 22 20 21 21 22 22
20 21 21 23 25 27 26 24 23 26 28 30 30 30 33 34 33 35 34 28 25 26 27 26 25 24 25 26 25 25 26 27 29 31 28 24 21 20 20 20 20 22
Wind_Direction
332 335 338 342 345 347 348 347 344 341 337 333 329 327 325 325 325 324 323 321 319 317 316 314 313 314 314 313 310 307 305 305 305 306 306 308 311 312 310 309 308 307
326 330 333 336 340 343 347 349 348 345 341 336 332 329 327 326 325 324 323 321 319 317 316 315 315 316 316 315 311 307 305 304 303 303 303 305 307 308 307 307 308 308
318 323 328 332 334 338 343 345 346 346 344 339 335 331 329 327 325 323 321 320 319 318 317 316 316 315 314 313 310 307 305 303 303 302 303 305 306 306 306 305 306 306
309 316 322 327 329 332 337 341 344 345 344 340 335 331 329 326 324 321 320 319 319 318 318 317 316 314 311 311 310 308 306 305 304 304 305 307 307 307 307 306 307 307
301 308 315 321 324 328 333 337 341 342 342 339 336 332 329 325 321 319 318 318 319 319 319 318 317 315 313 312 310 308 308 308 307 308 309 309 307 306 306 307 308 308
293 300 308 316 320 324 329 333 337 340 340 338 336 332 328 325 322 320 321 322 322 323 322 320 318 316 314 313 312 310 309 310 309 309 310 309 308 307 307 307 308 308
287 294 302 311 316 320 325 329 334 338 338 336 334 329 326 326 326 325 326 328 328 327 325 323 320 318 315 314 314 312 310 309 308 307 307 307 308 308 308 307 308 308
283 290 298 307 313 318 321 325 330 335 335 333 330 328 328 329 329 328 330 334 333 329 326 326 325 323 319 316 316 314 311 308 307 306 306 306 307 307 307 308 308 309
278 285 295 304 309 313 317 321 327 332 333 331 328 329 331 331 330 331 332 333 329 324 324 326 326 324 320 317 316 312 308 306 306 308 309 309 307 306 305 306 308 310
274 281 291 301 305 308 314 320 326 330 331 329 327 328 331 333 334 334 333 330 325 324 327 326 324 324 322 319 316 311 308 308 310 312 312 311 307 305 304 304 305 308
271 279 291 301 303 307 314 320 325 329 330 327 326 328 333 335 335 333 330 329 328 328 328 324 322 324 324 322 318 315 313 313 313 313 311 308 306 306 307 306 306 307
269 280 295 304 304 308 315 319 323 327 328 325 324 327 329 329 328 329 329 329 329 327 322 320 321 324 325 321 318 316 314 313 311 308 306 306 307 308 308 308 307 307
265 277 295 303 303 307 313 317 322 326 325 322 322 324 327 329 330 330 330 327 325 321 318 319 322 323 321 318 316 315 314 312 309 306 304 306 308 309 308 307 306 308
261 275 292 300 300 304 309 315 322 325 324 323 325 329 332 334 332 330 327 324 321 320 319 321 322 320 318 318 318 318 315 312 310 308 307 308 308 307 305 306 308 310
263 282 296 297 298 303 309 317 324 325 325 327 330 335 337 335 332 330 329 328 329 327 325 324 324 321 321 322 321 319 315 313 312 311 311 310 309 307 305 307 310 310
272 291 296 292 296 304 312 320 323 323 324 326 329 334 336 335 334 334 334 335 336 336 333 331 328 325 325 325 323 321 318 315 313 313 313 312 311 310 309 309 310 310
282 290 289 290 298 307 315 320 319 318 321 324 328 331 333 333 334 335 336 337 337 337 337 336 333 328 326 327 326 324 320 316 314 312 313 313 313 313 312 311 312 312
284 282 283 292 301 310 317 317 314 314 318 322 328 331 332 333 332 333 333 333 334 335 336 338 337 332 328 326 325 323 320 317 315 313 310 310 312 312 311 311 312 312
278 277 285 296 305 314 317 316 315 318 322 327 331 334 335 333 331 332 332 331 331 331 332 336 338 334 328 324 322 320 319 318 317 315 311 308 309 309 308 309 310 310
273 280 291 300 309 315 318 320 324 327 330 332 333 334 335 333 332 333 332 329 327 326 327 330 333 332 325 319 316 314 315 316 317 316 312 309 308 306 306 307 309 309
272 285 296 304 311 317 322 326 329 331 331 330 328 329 330 330 330 331 330 327 324 322 322 323 324 324 318 311 309 310 312 314 315 314 312 310 308 305 304 306 307 307
277 292 301 309 314 318 323 327 327 326 325 325 324 323 325 327 327 327 326 323 318 315 316 316 317 316 312 308 309 312 313 313 313 313 312 310 306 303 303 306 306 305
287 299 306 310 314 317 320 322 321 320 320 319 318 318 321 323 323 320 316 312 308 307 310 313 316 316 311 309 309 309 309 310 310 310 310 309 306 302 302 305 305 304
295 304 308 309 311 313 314 316 317 317 317 315 314 316 318 318 319 317 315 313 310 312 315 315 316 315 312 310 308 304 302 304 306 307 308 307 304 301 301 303 303 303
302 307 309 309 310 310 309 311 313 315 314 311 311 313 312 314 319 322 324 323 315 313 319 319 316 315 313 311 308 304 302 302 302 304 305 304 301 299 300 301 302 302
305 307 307 305 306 304 299 298 303 310 311 307 306 307 308 312 319 323 324 321 310 308 317 320 318 316 313 311 309 306 305 304 302 302 303 301 298 297 298 300 300 300